Regional Weather Roundup
Issued by NWS Upton, NY

Current Version | Previous Version | Graphics & Text | Print | Product List | Glossary Off
Versions: 1 2 3 4 5 6 7 8 9 10 11 12 13 14 15 16 17 18 19 20 21 22 23 24 25 26 27

000
ASUS41 KOKX 232108
RWROKX

REGIONAL WEATHER ROUNDUP
NATIONAL WEATHER SERVICE NEW YORK NY
400 PM EST THU FEB 23 2017

NOTE: "FAIR" INDICATES FEW OR NO CLOUDS BELOW 12,000 FEET WITH NO
SIGNIFICANT WEATHER AND/OR OBSTRUCTIONS TO VISIBILITY.

NYZ071-072-176-178-NJZ106-104-232200-
NEW YORK CITY METRO AREA

CITY           SKY/WX    TMP DP  RH WIND       PRES   REMARKS
Central Park   SUNNY     65  51  60 VRB5      29.82F
Wall St Helipt NOT AVBL
LaGuardia APRT MOSUNNY   60  49  66 S10       29.80S
Kennedy INTL   MOSUNNY   56  52  86 S9        29.83F
Breezy Point     N/A     46 N/A N/A SE7         N/A
Newark/Liberty MOSUNNY   66  52  60 S8        29.80S
Teterboro      SUNNY     66  52  60 S9        29.79S
$$

NYZ177-179-078>081-232200-
LONG ISLAND NEW YORK

CITY           SKY/WX    TMP DP  RH WIND       PRES   REMARKS
Jones Beach      N/A     48 N/A N/A S6          N/A
Matinecock PT    N/A     61 N/A N/A SW12        N/A
Farmingdale    MOSUNNY   55  50  83 S10       29.83F
MacArthur/ISP  CLOUDY    52  50  93 SW10      29.83S FOG
Shirley        FOG       49  48  97 S8        29.84F VSB 1
Westhampton    CLOUDY    49  46  90 S7        29.84F FOG
Southampton      N/A     45  45 100 SW5       29.81S
Bridgehampton  NOT AVBL
East Hampton   CLOUDY    47  46  95 SW9       29.83S FOG
Montauk          N/A     49  47  93 SW7       29.85S
$$

NYZ052-065-067-232200-
HUDSON VALLEY

CITY           SKY/WX    TMP DP  RH WIND       PRES   REMARKS
White Plains   SUNNY     60  49  66 S8        29.80R
Newburgh       SUNNY     70  54  56 SW14G25   29.76S
Montgomery     SUNNY     68  52  56 SW15G25   29.74R
Poughkeepsie   SUNNY     67  49  52 S9        29.73F
Albany         PTSUNNY   68  46  45 S10       29.72R
$$

NJZ001-105-106-008-010-013-015-019>022-104-232200-
NEW JERSEY

CITY           SKY/WX    TMP DP  RH WIND       PRES   REMARKS
Newark/Liberty MOSUNNY   66  52  60 S8        29.80S
Teterboro      SUNNY     66  52  60 S9        29.79S
Caldwell       SUNNY     68  51  54 SW9G17    29.80R
Somerville     SUNNY     70  52  52 SW6       29.78S
Linden         NOT AVBL
Sussex         MOSUNNY   67  52  58 SW12G20   29.78S
Andover          N/A     67  51  56 SW9       29.79S
Trenton        SUNNY     70  53  54 SW13      29.81F
Millville      SUNNY     71  55  56 S7        29.83S
Atlantic City  SUNNY     65  50  58 S12       29.85R
Wrightstown    CLOUDY    72  53  50 W13       29.79R
Toms River     CLOUDY    71  54  54 S10       29.82S
Belmar         SUNNY     66  53  63 SE7       29.83S
$$

PAZ047>061-062-071-232200-
EASTERN PENNSYLVANIA

CITY           SKY/WX    TMP DP  RH WIND       PRES   REMARKS
Philadelphia   MOSUNNY   72  53  51 SW8       29.82S
Allentown      SUNNY     71  52  50 SW3       29.78F
Scranton       MOSUNNY   70  52  52 SW13G21   29.76R
$$

CTZ002-004>006-009-010-012-RIZ004-006-007-MAZ004-011-015-232200-
SOUTHERN NEW ENGLAND
 IN CT

CITY           SKY/WX    TMP DP  RH WIND       PRES   REMARKS
Bradley INTL   MOSUNNY   61  49  64 S17       29.76R
Hartford       SUNNY     56  49  77 S14       29.78R
Danbury        SUNNY     65  49  56 S10       29.79R
Wtrbury/Oxford SUNNY     61  46  59 S10       29.81R
Bridgeport     SUNNY     52  44  74 E5        29.81R
Meriden        SUNNY     57  49  74 S12       29.79S
New Haven      MOSUNNY   52  46  80 S3        29.81S HAZE
Chester        MOCLDY    54  50  87 VRB6      29.81R
Groton         CLOUDY    50  48  93 SW6       29.82S FOG
Wilimantic     SUNNY     59  51  75 S14       29.79S

 IN RI

CITY           SKY/WX    TMP DP  RH WIND       PRES   REMARKS
Providence     MOSUNNY   61  50  67 SW18      29.79F
Block Island   PTSUNNY   48  46  93 SW14      29.84S FOG
Westerly       CLOUDY    53  46  77 SW8       29.83F
 IN MA

CITY           SKY/WX    TMP DP  RH WIND       PRES   REMARKS
Boston         MOSUNNY   65  51  60 S16       29.72F
Worcester      SUNNY     62  45  53 SW15G22   29.74S
Westfield      SUNNY     60  49  66 S16G22    29.73R
Provincetown   LGT RAIN  48  46  93 S13G21    29.80S VSB 1
Nantucket      MOSUNNY   48  43  82 S14       29.86R
$$

ANZ330-335-338-340-345-350-353-355-232200-
COASTAL MARINE OBSERVATIONS


STATION/POSITION TIME  SKY/WX   TEMP    WIND        PRES    VSBY  WAVE
                                AIR SEA DIR/SP/G                  HT/PER
                 (UTC)          (F)     (DEG/KT/KT) (MB)    (MI)  (FT/S)
NY HARB ENTRANCE 1950            47 44  160/  6/  6 1010.1          3/10
20 S FIRE ISLAND 2050            47 44  190/  8/ 10 1010.4          3/11
GREAT SOUTH BAY  NOT AVBL
23 SSW MONTAUK P 1950            49 46              1010.9          3/11
15 E BARNEGAT LI 2030               43                N/A           4/11
HUDSON CANYON    1950               49              1011.8          4/11
KINGS POINT      2048            52 41              1009.3
EXECUTION ROCKS  NOT AVBL
CENTRAL LI SOUND NOT AVBL
EASTERN LI SOUND NOT AVBL
ROBBINS REEF     2048            52     180/ 11/ 11 1009.8
$$


>>>>>>>>>>>>>>>>>>>>>>>>>>>> KEY <<<<<<<<<<<<<<<<<<<<<<<<<<<
>                                                          <
>     SKY/WX - Sky Condition/Present Weather               <
>     TMP    - Temperature in Fahrenheit                   <
>     DP     - Dew Point in Fahrenheit                     <
>     RH     - Relative Humidity in Percent                <
>     WIND   - Direction (from) and Speed in MPH           <
>     PRES   - Mean Sea Level Pressure (inches of Hg)      <
>     WCI    - Wind Chill Index                            <
>     VSB    - VISIBILITY IN MILES                         <
>     HX     - HEAT INDEX                                  <
>     TC     - TEMPERATURE IN CELSIUS                      <
>     VRB    - VARIABLE WIND DIRECTION                     <
>                                                          <
>>>>>>>>>>>>>>>>>>>>>>>>>>>> KEY <<<<<<<<<<<<<<<<<<<<<<<<<<<




USA.gov is the U.S. government's official web portal to all federal, state and local government web resources and services.